SB KEPS @ AMSAT $ORB12243.O Orbital Elements 12243.OSCAR
HR AMSAT ORBITAL ELEMENTS FOR OSCAR SATELLITES FROM WA5QGD FORT WORTH,TX August 30, 2012 Send SUBSCRIBE KEPS/UNSUBSCRIBE KEPS to majordomo@amsat.org only BID: ORB12243.O TO ALL RADIO AMATEURS BT
Satellite: AO-07 Catalog number: 07530 Epoch time: 12242.56641505 Element set: 0469 Inclination: 101.4078 deg RA of node: 236.9574 deg Eccentricity: 0.0011904 Arg of perigee: 137.5592 deg Mean anomaly: 222.6398 deg Mean motion: 12.53590897 rev/day Decay rate: -2.7e-07 rev/day^2 Epoch rev: 72924 Checksum: 314
Satellite: FO-29 Catalog number: 24278 Epoch time: 12242.83912297 Element set: 0943 Inclination: 098.5855 deg RA of node: 333.8677 deg Eccentricity: 0.0350282 Arg of perigee: 198.5435 deg Mean anomaly: 160.2670 deg Mean motion: 13.52987825 rev/day Decay rate: 2.3e-07 rev/day^2 Epoch rev: 79191 Checksum: 349
Satellite: SO-33 Catalog number: 25509 Epoch time: 12242.49405104 Element set: 310 Inclination: 031.4310 deg RA of node: 278.8254 deg Eccentricity: 0.0352008 Arg of perigee: 124.8664 deg Mean anomaly: 238.5568 deg Mean motion: 14.28803163 rev/day Decay rate: 1.92e-06 rev/day^2 Epoch rev: 72314 Checksum: 278
Satellite: RS-22 Catalog number: 27939 Epoch time: 12243.76522293 Element set: 678 Inclination: 097.8077 deg RA of node: 080.7436 deg Eccentricity: 0.0014233 Arg of perigee: 032.7286 deg Mean anomaly: 327.4802 deg Mean motion: 14.64106037 rev/day Decay rate: 3.42e-06 rev/day^2 Epoch rev: 47679 Checksum: 320
Satellite: VO-52 Catalog number: 28650 Epoch time: 12242.66452947 Element set: 0195 Inclination: 097.5933 deg RA of node: 270.0162 deg Eccentricity: 0.0026663 Arg of perigee: 157.0571 deg Mean anomaly: 203.1815 deg Mean motion: 14.83124546 rev/day Decay rate: 1.219e-05 rev/day^2 Epoch rev: 39586 Checksum: 311
Satellite: HO-68 Catalog number: 36122 Epoch time: 12243.70264519 Element set: 785 Inclination: 100.3543 deg RA of node: 301.5237 deg Eccentricity: 0.0007240 Arg of perigee: 301.6637 deg Mean anomaly: 058.3758 deg Mean motion: 13.16297635 rev/day Decay rate: -4.4e-07 rev/day^2 Epoch rev: 13019 Checksum: 283
/EX SB KEPS @ AMSAT $ORB12243.D Orbital Elements 12243.MICROS
HR AMSAT ORBITAL ELEMENTS FOR THE MICROSATS FROM WA5QGD FORT WORTH,TX August 30, 2012 Send SUBSCRIBE KEPS/UNSUBSCRIBE KEPS to majordomo@amsat.org only BID: ORB12243.D TO ALL RADIO AMATEURS BT
Satellite: UO-11 Catalog number: 14781 Epoch time: 12243.73565018 Element set: 962 Inclination: 097.9476 deg RA of node: 302.5779 deg Eccentricity: 0.0009435 Arg of perigee: 145.1497 deg Mean anomaly: 215.0334 deg Mean motion: 14.80533389 rev/day Decay rate: 4.72e-06 rev/day^2 Epoch rev: 53096 Checksum: 322
Satellite: AO-16 Catalog number: 20439 Epoch time: 12242.86930627 Element set: 0570 Inclination: 098.4350 deg RA of node: 184.1974 deg Eccentricity: 0.0010362 Arg of perigee: 305.5809 deg Mean anomaly: 054.4408 deg Mean motion: 14.32076952 rev/day Decay rate: 8.7e-07 rev/day^2 Epoch rev: 18054 Checksum: 302
Satellite: LO-19 Catalog number: 20442 Epoch time: 12242.95101487 Element set: 0492 Inclination: 098.4014 deg RA of node: 187.0267 deg Eccentricity: 0.0011164 Arg of perigee: 295.6331 deg Mean anomaly: 064.3696 deg Mean motion: 14.32294050 rev/day Decay rate: 1.45e-06 rev/day^2 Epoch rev: 18074 Checksum: 286
Satellite: AO-27 Catalog number: 22825 Epoch time: 12242.74153837 Element set: 184 Inclination: 098.5778 deg RA of node: 184.4288 deg Eccentricity: 0.0009291 Arg of perigee: 065.8779 deg Mean anomaly: 294.3379 deg Mean motion: 14.29479480 rev/day Decay rate: -2.6e-07 rev/day^2 Epoch rev: 98698 Checksum: 377
Satellite: IO-26 Catalog number: 22826 Epoch time: 12242.93824065 Element set: 0956 Inclination: 098.5732 deg RA of node: 184.9729 deg Eccentricity: 0.0009875 Arg of perigee: 058.3347 deg Mean anomaly: 301.8800 deg Mean motion: 14.29755397 rev/day Decay rate: 9.2e-07 rev/day^2 Epoch rev: 98714 Checksum: 352
Satellite: GO-32 Catalog number: 25397 Epoch time: 12242.58007461 Element set: 0863 Inclination: 098.3702 deg RA of node: 217.7057 deg Eccentricity: 0.0002192 Arg of perigee: 077.3787 deg Mean anomaly: 282.7624 deg Mean motion: 14.23288689 rev/day Decay rate: 8.0e-08 rev/day^2 Epoch rev: 73446 Checksum: 327
Satellite: NO-44 Catalog number: 26931 Epoch time: 12242.62847389 Element set: 0125 Inclination: 067.0521 deg RA of node: 291.0561 deg Eccentricity: 0.0006846 Arg of perigee: 254.9992 deg Mean anomaly: 105.0338 deg Mean motion: 14.29823704 rev/day Decay rate: 5.2e-07 rev/day^2 Epoch rev: 56974 Checksum: 313
Satellite: SO-50 Catalog number: 27607 Epoch time: 12243.67614253 Element set: 851 Inclination: 064.5565 deg RA of node: 068.2911 deg Eccentricity: 0.0078704 Arg of perigee: 233.5217 deg Mean anomaly: 125.8584 deg Mean motion: 14.72473201 rev/day Decay rate: 3.45e-06 rev/day^2 Epoch rev: 52093 Checksum: 299
Satellite: CO-55 Catalog number: 27844 Epoch time: 12243.62717992 Element set: 451 Inclination: 098.7047 deg RA of node: 250.9293 deg Eccentricity: 0.0010229 Arg of perigee: 013.4549 deg Mean anomaly: 346.6918 deg Mean motion: 14.21061166 rev/day Decay rate: 1.51e-06 rev/day^2 Epoch rev: 47546 Checksum: 313
Satellite: CO-57 Catalog number: 27848 Epoch time: 12242.58762922 Element set: 401 Inclination: 098.7135 deg RA of node: 249.2724 deg Eccentricity: 0.0010150 Arg of perigee: 022.6051 deg Mean anomaly: 337.5561 deg Mean motion: 14.20807307 rev/day Decay rate: 9.1e-07 rev/day^2 Epoch rev: 47525 Checksum: 290
Satellite: AO-51 Catalog number: 28375 Epoch time: 12242.89312965 Element set: 352 Inclination: 098.1553 deg RA of node: 204.7724 deg Eccentricity: 0.0082957 Arg of perigee: 177.1930 deg Mean anomaly: 182.9733 deg Mean motion: 14.40978286 rev/day Decay rate: 8.7e-07 rev/day^2 Epoch rev: 42938 Checksum: 345
Satellite: CP3 Catalog number: 31129 Epoch time: 12243.51753468 Element set: 250 Inclination: 097.8823 deg RA of node: 246.9288 deg Eccentricity: 0.0099535 Arg of perigee: 251.7569 deg Mean anomaly: 107.2773 deg Mean motion: 14.53180387 rev/day Decay rate: 5.25e-06 rev/day^2 Epoch rev: 28477 Checksum: 335
Satellite: CO-65 Catalog number: 32785 Epoch time: 12242.65091230 Element set: 0401 Inclination: 097.7924 deg RA of node: 301.9437 deg Eccentricity: 0.0014429 Arg of perigee: 177.3568 deg Mean anomaly: 182.7732 deg Mean motion: 14.83131826 rev/day Decay rate: 6.24e-06 rev/day^2 Epoch rev: 23465 Checksum: 309
Satellite: PRISM Catalog number: 33493 Epoch time: 12243.83138968 Element set: 24 Inclination: 098.1802 deg RA of node: 026.2307 deg Eccentricity: 0.0019708 Arg of perigee: 057.1148 deg Mean anomaly: 303.1967 deg Mean motion: 14.84209861 rev/day Decay rate: 1.972e-05 rev/day^2 Epoch rev: 19482 Checksum: 308
Satellite: SOHLA-1 Catalog number: 33496 Epoch time: 12242.89034422 Element set: 0821 Inclination: 098.1097 deg RA of node: 354.1637 deg Eccentricity: 0.0006731 Arg of perigee: 158.0380 deg Mean anomaly: 202.1110 deg Mean motion: 14.70024130 rev/day Decay rate: 3.64e-06 rev/day^2 Epoch rev: 19307 Checksum: 257
Satellite: SO-67 Catalog number: 35870 Epoch time: 12243.83594039 Element set: 281 Inclination: 097.2290 deg RA of node: 276.9615 deg Eccentricity: 0.0000396 Arg of perigee: 291.0717 deg Mean anomaly: 190.9819 deg Mean motion: 15.24343779 rev/day Decay rate: 3.417e-05 rev/day^2 Epoch rev: 16398 Checksum: 343
Satellite: TISAT-1 Catalog number: 36799 Epoch time: 12243.80894577 Element set: 299 Inclination: 098.0581 deg RA of node: 320.6814 deg Eccentricity: 0.0013788 Arg of perigee: 294.1943 deg Mean anomaly: 065.7828 deg Mean motion: 14.82167640 rev/day Decay rate: 1.186e-05 rev/day^2 Epoch rev: 11554 Checksum: 345
Satellite: STUDSAT Catalog number: 36801 Epoch time: 12242.94042557 Element set: 0458 Inclination: 098.0675 deg RA of node: 320.8703 deg Eccentricity: 0.0011455 Arg of perigee: 280.6811 deg Mean anomaly: 079.3115 deg Mean motion: 14.84897625 rev/day Decay rate: 3.734e-05 rev/day^2 Epoch rev: 11546 Checksum: 304
Satellite: FO-69 Catalog number: 37227 Epoch time: 12243.39884796 Element set: 0271 Inclination: 071.9697 deg RA of node: 148.1906 deg Eccentricity: 0.0017495 Arg of perigee: 187.1713 deg Mean anomaly: 172.9202 deg Mean motion: 14.77144147 rev/day Decay rate: 2.68e-06 rev/day^2 Epoch rev: 04705 Checksum: 339
Satellite: FO-70 Catalog number: 37380 Epoch time: 12243.28147121 Element set: 0275 Inclination: 071.9727 deg RA of node: 149.1032 deg Eccentricity: 0.0018005 Arg of perigee: 184.4449 deg Mean anomaly: 175.6549 deg Mean motion: 14.76895720 rev/day Decay rate: 3.50e-06 rev/day^2 Epoch rev: 04692 Checksum: 306
Satellite: ALMASAT-1 Catalog number: 38078 Epoch time: 12243.65942246 Element set: 523 Inclination: 069.4855 deg RA of node: 148.2973 deg Eccentricity: 0.0748264 Arg of perigee: 155.5658 deg Mean anomaly: 208.2946 deg Mean motion: 14.11426858 rev/day Decay rate: 1.5010e-04 rev/day^2 Epoch rev: 2805 Checksum: 325
Satellite: XATCOBEO Catalog number: 38082 Epoch time: 12243.70863684 Element set: 517 Inclination: 069.4832 deg RA of node: 144.0972 deg Eccentricity: 0.0713929 Arg of perigee: 153.2981 deg Mean anomaly: 210.6876 deg Mean motion: 14.21476777 rev/day Decay rate: 3.8283e-04 rev/day^2 Epoch rev: 2816 Checksum: 331
/EX SB KEPS @ AMSAT $ORB12243.W Orbital Elements 12243.WEATHER
HR AMSAT ORBITAL ELEMENTS FOR WEATHER SATELLITES FROM WA5QGD FORT WORTH,TX August 30, 2012 Send SUBSCRIBE KEPS/UNSUBSCRIBE KEPS to majordomo@amsat.org only BID: ORB12243.W TO ALL RADIO AMATEURS BT
Satellite: NOAA-10 Catalog number: 16969 Epoch time: 12242.96427220 Element set: 0056 Inclination: 098.5786 deg RA of node: 270.6915 deg Eccentricity: 0.0012693 Arg of perigee: 022.5370 deg Mean anomaly: 337.6366 deg Mean motion: 14.27571973 rev/day Decay rate: 9.0e-07 rev/day^2 Epoch rev: 35039 Checksum: 319
